When you browse on this site, cookies collect data to enhance your experience and personalize the content and advertising you see.
Visit our Privacy Policy to learn more. By continuing to use the site, you agree to this use of cookies and data.
  • In Netherlands
  • List of Countries
  • For 7 days
  • Water Temperature
  • Weather Map
  • Weather Widgets
  • user-avatar
    Login

    Hourly Weather Saidpur

    Today, 19 September, Thursday

    Time Temperature Precipitation Wind Pressure Humidity
    00:00 +30°C° 0 mm 1 mps 754 mmHg 73%
    01:00 +29°C° 0 mm 1 mps 754 mmHg 75%
    02:00 +29°C° 0 mm 1 mps 754 mmHg 76%
    03:00 +29°C° 0 mm 1 mps 753 mmHg 78%
    04:00 +28°C° 0.1 mm 1 mps 754 mmHg 80%
    05:00 +28°C° 0.1 mm 1 mps 754 mmHg 82%
    06:00 +28°C° 0 mm 1 mps 754 mmHg 86%
    07:00 +29°C° 0 mm 1 mps 754 mmHg 81%
    08:00 +31°C° 0 mm 1 mps 755 mmHg 76%
    09:00 +32°C° 0 mm 2 mps 755 mmHg 71%
    10:00 +33°C° 0.1 mm 1 mps 754 mmHg 66%
    11:00 +35°C° 0.1 mm 1 mps 754 mmHg 61%
    12:00 +34°C° 0 mm 0 mps 755 mmHg 53%
    13:00 +34°C° 0 mm 0 mps 754 mmHg 51%
    14:00 +34°C° 0 mm 0 mps 753 mmHg 49%
    15:00 +35°C° 0 mm 0 mps 752 mmHg 47%
    16:00 +34°C° 0 mm 0 mps 752 mmHg 52%
    17:00 +33°C° 0 mm 0 mps 752 mmHg 56%
    18:00 +33°C° 0 mm 1 mps 752 mmHg 60%
    19:00 +33°C° 0 mm 1 mps 752 mmHg 61%
    20:00 +32°C° 0 mm 1 mps 753 mmHg 63%
    21:00 +32°C° 0 mm 1 mps 753 mmHg 64%
    22:00 +32°C° 0 mm 1 mps 753 mmHg 66%
    23:00 +31°C° 0 mm 1 mps 753 mmHg 69%

    Tomorrow, 20 September, Friday

    Time Temperature Precipitation Wind Pressure Humidity
    00:00 +31°C° 0 mm 1 mps 753 mmHg 71%
    01:00 +30°C° 0 mm 1 mps 753 mmHg 72%
    02:00 +30°C° 0 mm 1 mps 753 mmHg 73%
    03:00 +30°C° 0 mm 1 mps 752 mmHg 74%
    04:00 +30°C° 0 mm 1 mps 753 mmHg 75%
    05:00 +27°C° 0 mm 0 mps 753 mmHg 75%
    06:00 +27°C° 0 mm 0 mps 753 mmHg 76%
    07:00 +29°C° 0 mm 0 mps 753 mmHg 71%
    08:00 +30°C° 0 mm 0 mps 753 mmHg 67%
    09:00 +31°C° 0 mm 0 mps 754 mmHg 63%
    10:00 +32°C° 0 mm 0 mps 754 mmHg 59%
    11:00 +35°C° 0 mm 1 mps 753 mmHg 55%
    12:00 +36°C° 0 mm 1 mps 753 mmHg 51%
    13:00 +36°C° 0 mm 1 mps 752 mmHg 52%
    14:00 +36°C° 0 mm 1 mps 751 mmHg 54%
    15:00 +37°C° 0 mm 2 mps 751 mmHg 55%
    16:00 +36°C° 0 mm 2 mps 751 mmHg 59%
    17:00 +34°C° 0 mm 1 mps 751 mmHg 63%
    18:00 +33°C° 0 mm 1 mps 751 mmHg 67%
    19:00 +32°C° 0 mm 1 mps 751 mmHg 67%
    20:00 +32°C° 0 mm 1 mps 752 mmHg 68%
    21:00 +29°C° 0 mm 0 mps 752 mmHg 68%
    22:00 +29°C° 0 mm 0 mps 753 mmHg 70%
    23:00 +31°C° 0 mm 1 mps 753 mmHg 71%

    Day after tomorrow, 21 September, Saturday

    Time Temperature Precipitation Wind Pressure Humidity
    00:00 +30°C° 0 mm 1 mps 753 mmHg 72%
    01:00 +30°C° 0 mm 1 mps 752 mmHg 73%
    02:00 +30°C° 0 mm 1 mps 752 mmHg 74%
    03:00 +30°C° 0 mm 1 mps 752 mmHg 74%
    04:00 +29°C° 0 mm 1 mps 752 mmHg 76%
    05:00 +29°C° 0 mm 1 mps 752 mmHg 77%
    06:00 +29°C° 0 mm 1 mps 752 mmHg 78%
    07:00 +30°C° 0 mm 1 mps 752 mmHg 73%
    08:00 +32°C° 0 mm 1 mps 753 mmHg 69%
    09:00 +33°C° 0 mm 1 mps 753 mmHg 65%
    10:00 +34°C° 0 mm 1 mps 753 mmHg 60%
    11:00 +35°C° 0 mm 1 mps 753 mmHg 56%
    12:00 +36°C° 0 mm 1 mps 752 mmHg 52%
    13:00 +36°C° 0 mm 1 mps 752 mmHg 52%
    14:00 +36°C° 0 mm 1 mps 751 mmHg 53%
    15:00 +37°C° 0 mm 2 mps 750 mmHg 54%
    16:00 +36°C° 0 mm 2 mps 750 mmHg 57%
    17:00 +34°C° 0 mm 1 mps 750 mmHg 61%
    18:00 +33°C° 0 mm 1 mps 750 mmHg 64%
    19:00 +33°C° 0 mm 1 mps 751 mmHg 65%
    20:00 +32°C° 0 mm 1 mps 751 mmHg 66%
    21:00 +32°C° 0 mm 1 mps 752 mmHg 66%
    22:00 +31°C° 0 mm 1 mps 752 mmHg 68%
    23:00 +31°C° 0 mm 1 mps 752 mmHg 69%

    22 September, Sunday

    Time Temperature Precipitation Wind Pressure Humidity
    00:00 +31°C° 0 mm 1 mps 753 mmHg 70%
    01:00 +30°C° 0 mm 1 mps 752 mmHg 72%
    02:00 +30°C° 0 mm 1 mps 752 mmHg 73%
    03:00 +30°C° 0 mm 1 mps 752 mmHg 74%
    04:00 +30°C° 0 mm 1 mps 752 mmHg 76%
    05:00 +27°C° 0 mm 0 mps 752 mmHg 77%
    06:00 +27°C° 0 mm 0 mps 753 mmHg 79%
    07:00 +30°C° 0.1 mm 1 mps 753 mmHg 75%
    08:00 +32°C° 0.1 mm 1 mps 754 mmHg 71%
    09:00 +33°C° 0.1 mm 1 mps 754 mmHg 67%
    10:00 +34°C° 1.1 mm 1 mps 754 mmHg 64%
    11:00 +35°C° 1.1 mm 1 mps 754 mmHg 60%
    12:00 +36°C° 1.1 mm 1 mps 753 mmHg 57%
    13:00 +36°C° 1 mm 1 mps 753 mmHg 57%
    14:00 +35°C° 1 mm 1 mps 752 mmHg 57%
    15:00 +35°C° 1 mm 1 mps 751 mmHg 57%
    16:00 +34°C° 0.7 mm 1 mps 752 mmHg 62%
    17:00 +33°C° 0.7 mm 1 mps 752 mmHg 67%
    18:00 +32°C° 0.7 mm 2 mps 752 mmHg 71%
    19:00 +32°C° 0.5 mm 1 mps 752 mmHg 73%
    20:00 +31°C° 0.5 mm 1 mps 753 mmHg 75%
    21:00 +31°C° 0.5 mm 1 mps 753 mmHg 76%
    22:00 +30°C° 1.4 mm 2 mps 753 mmHg 79%
    23:00 +30°C° 1.4 mm 2 mps 754 mmHg 82%

    23 September, Monday

    Time Temperature Precipitation Wind Pressure Humidity
    00:00 +29°C° 1.4 mm 2 mps 754 mmHg 85%
    01:00 +29°C° 2.6 mm 2 mps 754 mmHg 86%
    02:00 +28°C° 2.6 mm 2 mps 753 mmHg 87%
    03:00 +28°C° 2.6 mm 2 mps 753 mmHg 88%
    04:00 +28°C° 4.9 mm 2 mps 754 mmHg 90%
    05:00 +27°C° 4.9 mm 3 mps 754 mmHg 91%
    06:00 +27°C° 4.9 mm 4 mps 754 mmHg 93%
    07:00 +27°C° 2.3 mm 4 mps 755 mmHg 92%
    08:00 +27°C° 2.3 mm 4 mps 755 mmHg 91%
    09:00 +27°C° 2.3 mm 4 mps 756 mmHg 90%
    10:00 +29°C° 0.4 mm 4 mps 755 mmHg 84%
    11:00 +32°C° 0.4 mm 4 mps 755 mmHg 79%
    12:00 +33°C° 0.4 mm 4 mps 755 mmHg 73%
    13:00 +33°C° 0.9 mm 4 mps 754 mmHg 74%
    14:00 +31°C° 0.9 mm 3 mps 753 mmHg 76%
    15:00 +31°C° 0.9 mm 3 mps 753 mmHg 77%
    16:00 +30°C° 1.2 mm 3 mps 753 mmHg 80%
    17:00 +30°C° 1.2 mm 3 mps 753 mmHg 82%
    18:00 +29°C° 1.2 mm 3 mps 753 mmHg 84%
    19:00 +29°C° 2.2 mm 3 mps 754 mmHg 84%
    20:00 +29°C° 2.2 mm 3 mps 754 mmHg 84%
    21:00 +29°C° 2.2 mm 4 mps 755 mmHg 84%
    22:00 +28°C° 1 mm 3 mps 755 mmHg 86%
    23:00 +28°C° 1 mm 3 mps 755 mmHg 87%

    24 September, Tuesday

    Time Temperature Precipitation Wind Pressure Humidity
    00:00 +28°C° 1 mm 3 mps 755 mmHg 89%
    01:00 +27°C° 1.1 mm 3 mps 755 mmHg 90%
    02:00 +27°C° 1.1 mm 2 mps 755 mmHg 91%
    03:00 +27°C° 1.1 mm 2 mps 754 mmHg 92%
    04:00 +27°C° 0.2 mm 2 mps 755 mmHg 92%
    05:00 +27°C° 0.2 mm 1 mps 755 mmHg 92%
    06:00 +27°C° 0.2 mm 1 mps 755 mmHg 93%
    07:00 +28°C° 0.3 mm 1 mps 755 mmHg 89%
    08:00 +28°C° 0.3 mm 1 mps 756 mmHg 85%
    09:00 +29°C° 0.3 mm 1 mps 756 mmHg 82%
    10:00 +30°C° 1.2 mm 1 mps 756 mmHg 79%
    11:00 +31°C° 1.2 mm 1 mps 755 mmHg 75%
    12:00 +31°C° 1.2 mm 1 mps 755 mmHg 72%
    13:00 +31°C° 1.7 mm 2 mps 755 mmHg 72%
    14:00 +32°C° 1.7 mm 2 mps 754 mmHg 72%
    15:00 +32°C° 1.7 mm 2 mps 754 mmHg 71%
    16:00 +31°C° 1.3 mm 3 mps 754 mmHg 77%
    17:00 +29°C° 1.3 mm 3 mps 754 mmHg 82%
    18:00 +28°C° 1.3 mm 3 mps 754 mmHg 87%
    19:00 +28°C° 0.4 mm 4 mps 755 mmHg 88%
    20:00 +27°C° 0.4 mm 4 mps 756 mmHg 90%
    21:00 +27°C° 0.4 mm 4 mps 757 mmHg 91%
    22:00 +27°C° 1.2 mm 4 mps 757 mmHg 91%
    23:00 +27°C° 1.2 mm 4 mps 757 mmHg 92%
    Show more